Weather History for Bluefield, WV

Change the Weather History Date:

Thursday, September 26, 2013

  Actual Average Record
Temperature  
Mean Temperature 66 °F 62 °F  
Max Temperature 76 °F 71 °F 87 °F (2007)
Min Temperature 56 °F 53 °F 37 °F (2001)
Degree Days  
Heating Degree Days 0 5  
Month to date heating degree days 41 53  
Since 1 July heating degree days 47 59  
Cooling Degree Days 1 2  
Month to date cooling degree days 104 93  
Year to date cooling degree days 906 827  
Growing Degree Days 15 (Base 50)    
Moisture  
Dew Point 53 °F    
Average Humidity 62    
Maximum Humidity 86    
Minimum Humidity 38    
Precipitation  
Precipitation T in 0.10 in 1.91 in (2009)
Month to date precipitation 1.49 2.71  
Year to date precipitation 31.71 31.10  
Snow  
Snow 0.00 in - - ()
Month to date snowfall 0.0  
Since 1 July snowfall 0.0  
Since 1 September snowfall 0.0  
Snow Depth 0.00 in    
Sea Level Pressure  
Sea Level Pressure 29.99 in    
Wind  
Wind Speed 1 mph (NE)    
Max Wind Speed 9 mph    
Max Gust Speed 14 mph    
Visibility 6 miles    
Events Fog , Rain    
T = Trace of Precipitation, MM = Missing Value Source: NWS Daily Summary

Daily Weather History Graph

Daily Weather History Graph

Search for Another Location

Airport:

Trip Planner

Search our weather history database for the weather conditions in past years. The results will help you decide how hot, cold, wet, or windy it might be!

Date:

Astronomy

Sep. 26, 2013 Rise Set
Actual Time 7:16 AM EDT 7:15 PM EDT
Civil Twilight 6:50 AM EDT 7:41 PM EDT
Nautical Twilight 6:19 AM EDT 8:11 PM EDT
Astronomical Twilight 5:49 AM EDT 8:42 PM EDT
Moon No Moon Rise 2:00 PM EDT (9/26)
Length of Visible Light 12h 51m
Length of Day
11h 59m
Waning Gibbous, 55% of the Moon is Illuminated
Sep 26
Waning Gibbous
Sep 26
Last Quarter
Oct 4
New
Oct 11
First Quarter
Oct 18
Full

Hourly Weather History & Observations

Time (EDT) Temp. Dew Point Humidity Pressure Visibility Wind Dir Wind Speed Gust Speed Precip Events Conditions
12:52 AM 60.1 °F 53.1 °F 78% 29.90 in 10.0 mi Calm Calm - N/A   Overcast
1:52 AM 60.1 °F 53.1 °F 78% 29.91 in 10.0 mi Calm Calm - 0.00 in Rain Light Rain
2:52 AM 59.0 °F 54.0 °F 83% 29.91 in 9.0 mi Calm Calm - 0.00 in   Overcast
3:52 AM 59.0 °F 54.0 °F 83% 29.91 in 5.0 mi Calm Calm - N/A   Haze
4:30 AM 57.2 °F 53.6 °F 88% 29.98 in 3.0 mi Calm Calm - N/A   Scattered Clouds
4:52 AM 57.9 °F 54.0 °F 87% 29.91 in 4.0 mi East 3.5 mph - N/A   Overcast
5:07 AM 57.2 °F 53.6 °F 88% 29.98 in 1.8 mi Calm Calm - N/A   Overcast
5:10 AM 57.2 °F 53.6 °F 88% 29.98 in 0.8 mi Calm Calm - N/A   Overcast
5:22 AM 57.2 °F 53.6 °F 88% 29.98 in 1.2 mi Calm Calm - N/A   Mostly Cloudy
5:24 AM 57.2 °F 53.6 °F 88% 29.98 in 2.5 mi Calm Calm - N/A   Mostly Cloudy
5:31 AM 57.2 °F 53.6 °F 88% 29.98 in 4.0 mi Calm Calm - N/A   Haze
5:46 AM 57.2 °F 51.8 °F 82% 29.98 in 1.8 mi Calm Calm - N/A   Haze
5:50 AM 57.2 °F 53.6 °F 88% 29.98 in 0.8 mi Calm Calm - N/A   Mostly Cloudy
5:52 AM 57.0 °F 53.1 °F 87% 29.92 in 0.5 mi Calm Calm - N/A Fog Fog
6:05 AM 57.2 °F 51.8 °F 82% 29.99 in 1.5 mi Calm Calm - N/A   Haze
6:12 AM 55.4 °F 51.8 °F 88% 29.99 in 5.0 mi Calm Calm - N/A   Scattered Clouds
6:27 AM 57.2 °F 53.6 °F 88% 30.00 in 2.0 mi Calm Calm - N/A   Mostly Cloudy
6:39 AM 57.2 °F 53.6 °F 88% 30.00 in 2.5 mi Calm Calm - N/A   Mostly Cloudy
6:44 AM 57.2 °F 53.6 °F 88% 30.00 in 1.0 mi Calm Calm - N/A   Mostly Cloudy
6:52 AM 57.0 °F 53.1 °F 87% 29.94 in 0.5 mi Calm Calm - N/A Fog Fog
7:50 AM 57.2 °F 53.6 °F 88% 30.02 in 1.2 mi Calm Calm - N/A   Overcast
7:52 AM 57.9 °F 54.0 °F 87% 29.96 in 1.5 mi Calm Calm - N/A   Overcast
7:58 AM 57.2 °F 53.6 °F 88% 30.02 in 3.0 mi ESE 3.5 mph - N/A   Overcast
8:03 AM 57.2 °F 53.6 °F 88% 30.03 in 1.5 mi Calm Calm - N/A   Overcast
8:07 AM 57.2 °F 53.6 °F 88% 30.03 in 0.8 mi Calm Calm - N/A   Overcast
8:31 AM 57.2 °F 53.6 °F 88% 30.03 in 1.2 mi Calm Calm - N/A   Overcast
8:43 AM 59.0 °F 53.6 °F 82% 30.04 in 2.5 mi Calm Calm - N/A   Haze
8:50 AM 59.0 °F 53.6 °F 82% 30.04 in 3.0 mi East 3.5 mph - N/A   Haze
8:52 AM 59.0 °F 54.0 °F 83% 29.98 in 3.0 mi Calm Calm - N/A   Haze
9:37 AM 62.6 °F 53.6 °F 72% 30.06 in 9.0 mi Calm Calm - N/A   Mostly Cloudy
9:52 AM 63.0 °F 54.0 °F 72% 29.99 in 10.0 mi North 3.5 mph - N/A   Mostly Cloudy
10:18 AM 64.4 °F 53.6 °F 68% 30.07 in 10.0 mi ENE 3.5 mph - N/A   Scattered Clouds
10:44 AM 66.2 °F 53.6 °F 64% 30.08 in 10.0 mi NE 4.6 mph - N/A   Mostly Cloudy
10:52 AM 66.0 °F 53.1 °F 63% 30.00 in 10.0 mi East 5.8 mph - N/A   Mostly Cloudy
11:52 AM 68.0 °F 54.0 °F 61% 29.99 in 10.0 mi Calm Calm - N/A   Mostly Cloudy
12:37 PM 69.8 °F 50.0 °F 49% 30.08 in 10.0 mi Variable 3.5 mph - N/A   Scattered Clouds
12:52 PM 70.0 °F 51.1 °F 51% 29.99 in 10.0 mi NNE 4.6 mph - N/A   Partly Cloudy
1:52 PM 73.0 °F 48.0 °F 41% 29.97 in 10.0 mi Calm Calm - N/A   Clear
2:52 PM 73.0 °F 46.9 °F 39% 29.97 in 10.0 mi Calm Calm - N/A   Partly Cloudy
3:52 PM 73.9 °F 48.9 °F 41% 29.97 in 10.0 mi East 3.5 mph - N/A   Scattered Clouds
4:52 PM 75.9 °F 48.0 °F 37% 29.97 in 10.0 mi Calm Calm - N/A   Overcast
5:52 PM 73.0 °F 50.0 °F 44% 29.99 in 10.0 mi North 3.5 mph - N/A   Partly Cloudy
6:52 PM 69.1 °F 51.1 °F 53% 30.01 in 10.0 mi Calm Calm - N/A   Partly Cloudy
7:52 PM 66.0 °F 51.1 °F 59% 30.02 in 10.0 mi Calm Calm - N/A   Mostly Cloudy
8:52 PM 64.0 °F 52.0 °F 65% 30.04 in 10.0 mi NNE 4.6 mph - N/A   Mostly Cloudy
9:52 PM 63.0 °F 53.1 °F 70% 30.06 in 10.0 mi Calm Calm - N/A   Mostly Cloudy
10:52 PM 61.0 °F 52.0 °F 72% 30.06 in 10.0 mi Calm Calm - N/A   Clear
11:52 PM 59.0 °F 53.1 °F 81% 30.06 in 10.0 mi Calm Calm - N/A   Clear